Weather History for KOKK - December, 2012

Change the Weather History Date:

Thursday, December 6, 2012

  Actual Average (KGUS) Record (KGUS)
Temperature  
Mean Temperature 35 °F -  
Max Temperature 44 °F 39 °F 69 °F (1998)
Min Temperature 26 °F 28 °F 6 °F (2007)
Degree Days  
Heating Degree Days 30    
Moisture  
Dew Point 32 °F    
Average Humidity 84    
Maximum Humidity 93    
Minimum Humidity 76    
Precipitation  
Precipitation 0.00 in - - ()
Sea Level Pressure  
Sea Level Pressure 30.08 in    
Wind  
Wind Speed 9 mph (SSE)    
Max Wind Speed 13 mph    
Max Gust Speed -    
Visibility 9 miles    
Events      
Averages and records for this station are not official NWS values.
T = Trace of Precipitation, MM = Missing Value Source: NWS Daily Summary

Daily Weather History Graph

Daily Weather History Graph

Search for Another Location

Airport or City:

Trip Planner

Search our weather history database for the weather conditions in past years. The results will help you decide how hot, cold, wet, or windy it might be!

Date:

Astronomy

Dec. 06, 2012 Rise Set
Actual Time 6:53 AM CST 4:17 PM CST
Civil Twilight 6:23 AM CST 4:47 PM CST
Nautical Twilight 5:49 AM CST 5:21 PM CST
Astronomical Twilight 5:15 AM CST 5:54 PM CST
Moon No Moon Rise 11:44 AM CST (12/6)
Length of Visible Light 10h 24m
Length of Day
9h 23m
Waning Gibbous, 49% of the Moon is Illuminated
Dec 6
Waning Gibbous
Dec 13
New
Dec 19
First Quarter
Dec 28
Full
Jan 4
Last Quarter

Hourly Weather History & Observations

Time (CST) Temp. Windchill Dew Point Humidity Pressure Visibility Wind Dir Wind Speed Gust Speed Precip Events Conditions
12:15 AM 30.2 °F 20.2 °F 24.8 °F 80% 30.24 in 10.0 mi SE 12.7 mph - N/A   Clear
12:35 AM 30.2 °F 20.2 °F 24.8 °F 80% 30.23 in 10.0 mi SE 12.7 mph - N/A   Clear
12:55 AM 30.2 °F 20.2 °F 24.8 °F 80% 30.22 in 10.0 mi SE 12.7 mph - N/A   Clear
1:15 AM 30.2 °F 21.3 °F 24.8 °F 80% 30.23 in 10.0 mi SE 10.4 mph - N/A   Clear
1:35 AM 30.2 °F 21.3 °F 24.8 °F 80% 30.23 in 10.0 mi ESE 10.4 mph - N/A   Clear
1:55 AM 30.2 °F 21.9 °F 24.8 °F 80% 30.23 in 10.0 mi ESE 9.2 mph - N/A   Clear
2:15 AM 28.4 °F 19.7 °F 24.8 °F 86% 30.23 in 10.0 mi ESE 9.2 mph - N/A   Clear
2:35 AM 28.4 °F 19.1 °F 24.8 °F 86% 30.22 in 10.0 mi SE 10.4 mph - N/A   Clear
2:55 AM 28.4 °F 19.7 °F 24.8 °F 86% 30.22 in 10.0 mi SE 9.2 mph - N/A   Clear
3:15 AM 28.4 °F 19.7 °F 24.8 °F 86% 30.21 in 10.0 mi ESE 9.2 mph - N/A   Clear
3:35 AM 28.4 °F 18.5 °F 24.8 °F 86% 30.20 in 10.0 mi SE 11.5 mph - N/A   Clear
3:55 AM 28.4 °F 19.7 °F 24.8 °F 86% 30.20 in 10.0 mi SE 9.2 mph - N/A   Clear
4:15 AM 28.4 °F 19.7 °F 24.8 °F 86% 30.20 in 10.0 mi SE 9.2 mph - N/A   Clear
4:35 AM 28.4 °F 20.4 °F 24.8 °F 86% 30.19 in 9.0 mi SE 8.1 mph - N/A   Clear
4:55 AM 28.4 °F 20.4 °F 24.8 °F 86% 30.19 in 10.0 mi ESE 8.1 mph - N/A   Clear
5:15 AM 28.4 °F 19.7 °F 24.8 °F 86% 30.19 in 10.0 mi ESE 9.2 mph - N/A   Clear
5:35 AM 28.4 °F 19.7 °F 24.8 °F 86% 30.18 in 10.0 mi SE 9.2 mph - N/A   Clear
5:55 AM 26.6 °F 19.1 °F 23.0 °F 86% 30.18 in 10.0 mi ESE 6.9 mph - N/A   Clear
6:15 AM 26.6 °F 18.2 °F 24.8 °F 93% 30.18 in 10.0 mi ESE 8.1 mph - N/A   Clear
6:35 AM 26.6 °F 19.1 °F 23.0 °F 86% 30.18 in 10.0 mi ESE 6.9 mph - N/A   Clear
6:55 AM 26.6 °F 21.2 °F 24.8 °F 93% 30.18 in 10.0 mi ESE 4.6 mph - N/A   Clear
7:15 AM 28.4 °F 21.2 °F 24.8 °F 86% 30.18 in 10.0 mi SE 6.9 mph - N/A   Clear
7:35 AM 28.4 °F 22.2 °F 24.8 °F 86% 30.17 in 7.0 mi SE 5.8 mph - N/A   Clear
7:55 AM 28.4 °F 20.4 °F 24.8 °F 86% 30.16 in 10.0 mi SE 8.1 mph - N/A   Clear
8:15 AM 30.2 °F 21.9 °F 26.6 °F 86% 30.15 in 8.0 mi SSE 9.2 mph - N/A   Clear
8:35 AM 30.2 °F 21.3 °F 26.6 °F 86% 30.15 in 0.8 mi SSE 10.4 mph - N/A   Unknown
8:55 AM 30.2 °F 21.3 °F 26.6 °F 86% 30.15 in 1.2 mi SSE 10.4 mph - N/A   Clear
9:15 AM 32.0 °F 24.2 °F 28.4 °F 87% 30.15 in 3.0 mi SSE 9.2 mph - N/A   Clear
9:35 AM 33.8 °F 27.0 °F 28.4 °F 81% 30.15 in 4.0 mi SSE 8.1 mph - N/A   Clear
9:55 AM 33.8 °F 27.7 °F 30.2 °F 87% 30.15 in 2.5 mi SSE 6.9 mph - N/A   Clear
10:15 AM 33.8 °F 27.7 °F 30.2 °F 87% 30.15 in 10.0 mi SSE 6.9 mph - N/A   Clear
10:35 AM 35.6 °F 28.6 °F 30.2 °F 81% 30.13 in 6.0 mi SSE 9.2 mph - N/A   Clear
10:55 AM 35.6 °F 28.6 °F 30.2 °F 81% 30.11 in 10.0 mi SSE 9.2 mph - N/A   Clear
11:15 AM 37.4 °F 30.8 °F 32.0 °F 81% 30.09 in 10.0 mi South 9.2 mph - N/A   Clear
11:35 AM 37.4 °F 29.8 °F 32.0 °F 81% 30.07 in 10.0 mi SSE 11.5 mph - N/A   Clear
11:55 AM 39.2 °F 33.0 °F 33.8 °F 81% 30.06 in 10.0 mi SSE 9.2 mph - N/A   Clear
12:15 PM 39.2 °F 32.5 °F 35.6 °F 87% 30.05 in 10.0 mi South 10.4 mph - N/A   Clear
12:35 PM 41.0 °F 34.7 °F 35.6 °F 81% 30.04 in 10.0 mi South 10.4 mph - N/A   Clear
12:55 PM 42.8 °F 37.5 °F 35.6 °F 76% 30.03 in 10.0 mi South 9.2 mph - N/A   Clear
1:15 PM 42.8 °F 38.0 °F 37.4 °F 81% 30.02 in 10.0 mi South 8.1 mph - N/A   Clear
1:35 PM 44.6 °F 40.2 °F 37.4 °F 76% 30.01 in 10.0 mi South 8.1 mph - N/A   Clear
1:55 PM 44.6 °F 41.4 °F 37.4 °F 76% 30.01 in 10.0 mi South 5.8 mph - N/A   Clear
2:15 PM 44.6 °F 40.2 °F 37.4 °F 76% 30.00 in 10.0 mi SSE 8.1 mph - N/A   Clear
2:35 PM 44.6 °F 40.2 °F 37.4 °F 76% 30.00 in 10.0 mi SSE 8.1 mph - N/A   Clear
2:55 PM 44.6 °F 40.7 °F 37.4 °F 76% 30.01 in 10.0 mi South 6.9 mph - N/A   Clear
3:15 PM 44.6 °F 41.4 °F 37.4 °F 76% 30.01 in 10.0 mi South 5.8 mph - N/A   Clear
3:35 PM 44.6 °F 40.7 °F 37.4 °F 76% 30.01 in 10.0 mi South 6.9 mph - N/A   Clear
3:55 PM 42.8 °F 40.1 °F 37.4 °F 81% 30.00 in 3.0 mi SE 4.6 mph - N/A   Clear
4:15 PM 42.8 °F 39.3 °F 37.4 °F 81% 29.99 in 5.0 mi SSE 5.8 mph - N/A   Clear
4:35 PM 41.0 °F 37.1 °F 37.4 °F 87% 29.99 in 10.0 mi SSE 5.8 mph - N/A   Clear
4:55 PM 41.0 °F 38.0 °F 37.4 °F 87% 29.99 in 10.0 mi SSE 4.6 mph - N/A   Clear
5:15 PM 41.0 °F 36.4 °F 37.4 °F 87% 29.99 in 9.0 mi SSE 6.9 mph - N/A   Clear
5:35 PM 41.0 °F 36.4 °F 37.4 °F 87% 29.98 in 10.0 mi SSE 6.9 mph - N/A   Clear
5:55 PM 41.0 °F 36.4 °F 37.4 °F 87% 29.97 in 10.0 mi SSE 6.9 mph - N/A   Scattered Clouds
6:15 PM 42.8 °F 38.6 °F 35.6 °F 76% 29.97 in 10.0 mi SSE 6.9 mph - N/A   Mostly Cloudy
6:35 PM 42.8 °F 38.6 °F 37.4 °F 81% 29.97 in 10.0 mi SSE 6.9 mph - N/A   Overcast
6:55 PM 41.0 °F 37.1 °F 37.4 °F 87% 29.98 in 10.0 mi SSE 5.8 mph - N/A   Mostly Cloudy
7:15 PM 41.0 °F 36.4 °F 37.4 °F 87% 29.97 in 10.0 mi SSE 6.9 mph - N/A   Mostly Cloudy
7:35 PM 41.0 °F 39.0 °F 37.4 °F 87% 29.97 in 6.0 mi SSE 3.5 mph - N/A   Mostly Cloudy
7:55 PM 41.0 °F 39.0 °F 35.6 °F 81% 29.97 in 10.0 mi SSE 3.5 mph - N/A   Mostly Cloudy
8:35 PM 41.0 °F - 37.4 °F 87% 29.97 in 10.0 mi Calm Calm - N/A   Mostly Cloudy
8:55 PM 39.2 °F 35.0 °F 37.4 °F 93% 29.97 in 8.0 mi SSE 5.8 mph - N/A   Mostly Cloudy
9:15 PM 41.0 °F 36.4 °F 37.4 °F 87% 29.96 in 10.0 mi South 6.9 mph - N/A   Overcast
9:35 PM 42.8 °F 40.1 °F 39.2 °F 87% 29.97 in 10.0 mi South 4.6 mph - N/A   Overcast
9:55 PM 42.8 °F 41.1 °F 39.2 °F 87% 29.96 in 10.0 mi SSW 3.5 mph - N/A   Overcast
10:15 PM 42.8 °F 41.1 °F 39.2 °F 87% 29.96 in 10.0 mi SSW 3.5 mph - N/A   Overcast
10:35 PM 42.8 °F 39.3 °F 39.2 °F 87% 29.95 in 10.0 mi South 5.8 mph - N/A   Overcast
10:55 PM 42.8 °F 38.6 °F 37.4 °F 81% 29.95 in 10.0 mi South 6.9 mph - N/A   Overcast
11:15 PM 42.8 °F 38.6 °F 37.4 °F 81% 29.94 in 10.0 mi South 6.9 mph - N/A   Overcast
11:35 PM 42.8 °F 39.3 °F 37.4 °F 81% 29.94 in 10.0 mi SW 5.8 mph - N/A   Mostly Cloudy
11:55 PM 42.8 °F 39.3 °F 37.4 °F 81% 29.94 in 10.0 mi SSW 5.8 mph - N/A   Partly Cloudy